VTE33 KPGA-KPHX

Flight info

Callsign VTE33
Flight time 0h 43m
Altitude 32000
Route GCN TENTS BRUSR1
Aircraft E135/M-SDFGIRW/S

Departure

Time 2026-05-07 19:31
Airport Page Municipal Airport (KPGA)

Arrival

Time 2026-05-07 20:14
Airport Phoenix Sky Harbor International Airport (KPHX)
Time Latitude Longitude Altitude Speed Heading
2026-05-07 18:58 36.92464 -111.45009 4268 ft 0 kts 298°
2026-05-07 19:25 36.92469 -111.45011 4269 ft 2 kts 342°
2026-05-07 19:25 36.92479 -111.44981 4268 ft 5 kts 87°
2026-05-07 19:25 36.92484 -111.44912 4268 ft 10 kts 92°
2026-05-07 19:25 36.92430 -111.44875 4271 ft 8 kts 169°
2026-05-07 19:26 36.92382 -111.44865 4274 ft 6 kts 170°
2026-05-07 19:26 36.92321 -111.44852 4277 ft 10 kts 170°
2026-05-07 19:26 36.92249 -111.44836 4280 ft 10 kts 169°
2026-05-07 19:26 36.92178 -111.44821 4283 ft 10 kts 170°
2026-05-07 19:27 36.92106 -111.44806 4287 ft 12 kts 170°
2026-05-07 19:27 36.92020 -111.44788 4292 ft 11 kts 170°
2026-05-07 19:27 36.91946 -111.44772 4295 ft 10 kts 170°
2026-05-07 19:27 36.91880 -111.44757 4297 ft 8 kts 170°
2026-05-07 19:28 36.91823 -111.44745 4299 ft 8 kts 169°
2026-05-07 19:28 36.91755 -111.44730 4301 ft 11 kts 170°
2026-05-07 19:28 36.91679 -111.44708 4302 ft 8 kts 143°
2026-05-07 19:28 36.91673 -111.44698 4302 ft 0 kts 120°
2026-05-07 19:29 36.91670 -111.44662 4301 ft 10 kts 81°
2026-05-07 19:29 36.91713 -111.44615 4296 ft 0 kts 348°
2026-05-07 19:29 36.91727 -111.44619 4296 ft 10 kts 348°
2026-05-07 19:29 36.92062 -111.44692 4287 ft 86 kts 349°
2026-05-07 19:30 36.92872 -111.44865 4254 ft 146 kts 350°
2026-05-07 19:30 36.93939 -111.45087 4524 ft 161 kts 351°
2026-05-07 19:30 36.95096 -111.45439 4793 ft 190 kts 331°
2026-05-07 19:30 36.96047 -111.46774 4817 ft 231 kts 291°
2026-05-07 19:31 36.96188 -111.48915 5000 ft 263 kts 256°
2026-05-07 19:31 36.95291 -111.50889 5704 ft 270 kts 223°
2026-05-07 19:31 36.93728 -111.52119 6547 ft 270 kts 206°
2026-05-07 19:31 36.92038 -111.53207 7316 ft 274 kts 207°
2026-05-07 19:32 36.90352 -111.54295 8052 ft 278 kts 207°
2026-05-07 19:32 36.88638 -111.55402 8797 ft 281 kts 207°
2026-05-07 19:32 36.86903 -111.56521 9529 ft 284 kts 207°
2026-05-07 19:32 36.85124 -111.57667 10235 ft 288 kts 207°
2026-05-07 19:33 36.83332 -111.58823 10752 ft 296 kts 207°
2026-05-07 19:33 36.81467 -111.60024 11176 ft 307 kts 207°
2026-05-07 19:33 36.79544 -111.61262 11629 ft 317 kts 208°
2026-05-07 19:33 36.77566 -111.62536 12068 ft 326 kts 208°
2026-05-07 19:34 36.75526 -111.63848 12568 ft 334 kts 208°
2026-05-07 19:34 36.73442 -111.65189 13168 ft 339 kts 208°
2026-05-07 19:34 36.71330 -111.66546 13776 ft 342 kts 208°
2026-05-07 19:34 36.69190 -111.67921 14361 ft 347 kts 208°
2026-05-07 19:35 36.67044 -111.69299 14901 ft 351 kts 208°
2026-05-07 19:35 36.64848 -111.70709 15448 ft 356 kts 208°
2026-05-07 19:35 36.62645 -111.72121 16018 ft 360 kts 208°
2026-05-07 19:35 36.60403 -111.73558 16638 ft 365 kts 208°
2026-05-07 19:36 36.58144 -111.75005 17231 ft 368 kts 208°
2026-05-07 19:36 36.55840 -111.76481 17801 ft 371 kts 208°
2026-05-07 19:36 36.53551 -111.77946 18432 ft 371 kts 208°
2026-05-07 19:36 36.51263 -111.79410 19106 ft 370 kts 208°
2026-05-07 19:37 36.48985 -111.80866 19733 ft 370 kts 208°
2026-05-07 19:37 36.46715 -111.82317 20378 ft 369 kts 208°
2026-05-07 19:37 36.44423 -111.83781 21007 ft 368 kts 208°
2026-05-07 19:37 36.42155 -111.85229 21636 ft 368 kts 208°
2026-05-07 19:38 36.39897 -111.86670 22244 ft 368 kts 208°
2026-05-07 19:38 36.37631 -111.88115 22828 ft 368 kts 208°
2026-05-07 19:38 36.35347 -111.89571 23459 ft 367 kts 208°
2026-05-07 19:38 36.33100 -111.91004 24021 ft 367 kts 208°
2026-05-07 19:39 36.30831 -111.92450 24629 ft 366 kts 208°
2026-05-07 19:39 36.28574 -111.93887 25176 ft 367 kts 208°
2026-05-07 19:39 36.26315 -111.95327 25742 ft 366 kts 208°
2026-05-07 19:39 36.24059 -111.96762 26287 ft 366 kts 208°
2026-05-07 19:40 36.21774 -111.98216 26846 ft 365 kts 208°
2026-05-07 19:40 36.19520 -111.99650 27393 ft 364 kts 208°
2026-05-07 19:40 36.17270 -112.01081 27912 ft 364 kts 208°
2026-05-07 19:40 36.14994 -112.02528 28458 ft 363 kts 208°
2026-05-07 19:41 36.12738 -112.03963 28961 ft 364 kts 208°
2026-05-07 19:41 36.10457 -112.05413 29423 ft 365 kts 208°
2026-05-07 19:41 36.08207 -112.06843 29897 ft 365 kts 208°
2026-05-07 19:41 36.05936 -112.08288 30369 ft 366 kts 208°
2026-05-07 19:42 36.03667 -112.09731 30869 ft 365 kts 208°
2026-05-07 19:42 36.01418 -112.11163 31360 ft 365 kts 208°
2026-05-07 19:42 35.99186 -112.12585 31857 ft 364 kts 208°
2026-05-07 19:42 35.96938 -112.14022 32276 ft 366 kts 208°
2026-05-07 19:43 35.92319 -112.17041 32311 ft 385 kts 209°
2026-05-07 19:43 35.87465 -112.20228 32293 ft 403 kts 208°
2026-05-07 19:44 35.84948 -112.21878 32122 ft 408 kts 209°
2026-05-07 19:44 35.82464 -112.23506 32240 ft 410 kts 209°
2026-05-07 19:44 35.79904 -112.25184 32348 ft 420 kts 209°
2026-05-07 19:44 35.77285 -112.26897 32453 ft 434 kts 209°
2026-05-07 19:45 35.74582 -112.28665 32226 ft 448 kts 208°
2026-05-07 19:45 35.71801 -112.30482 32186 ft 454 kts 208°
2026-05-07 19:45 35.66155 -112.34167 32187 ft 463 kts 208°
2026-05-07 19:46 35.60442 -112.37890 32158 ft 470 kts 208°
2026-05-07 19:46 35.54638 -112.41635 32126 ft 468 kts 206°
2026-05-07 19:47 35.48455 -112.43945 32144 ft 464 kts 188°
2026-05-07 19:47 35.41985 -112.44157 32145 ft 463 kts 171°
2026-05-07 19:48 35.35681 -112.42596 32124 ft 464 kts 168°
2026-05-07 19:48 35.29384 -112.41300 31672 ft 446 kts 169°
2026-05-07 19:49 35.26368 -112.40705 31191 ft 435 kts 169°
2026-05-07 19:49 35.23434 -112.40129 30526 ft 430 kts 169°
2026-05-07 19:49 35.20482 -112.39551 29797 ft 428 kts 169°
2026-05-07 19:49 35.17559 -112.38946 28953 ft 430 kts 167°
2026-05-07 19:50 35.14612 -112.38301 28103 ft 425 kts 168°
2026-05-07 19:50 35.11745 -112.37677 27287 ft 419 kts 168°
2026-05-07 19:50 35.08888 -112.37057 26467 ft 414 kts 168°
2026-05-07 19:50 35.06096 -112.36451 25658 ft 409 kts 168°
2026-05-07 19:51 35.03292 -112.35844 24799 ft 404 kts 168°
2026-05-07 19:51 35.00548 -112.35249 24035 ft 396 kts 168°
2026-05-07 19:51 34.97871 -112.34670 23922 ft 390 kts 167°
2026-05-07 19:51 34.95174 -112.34086 23931 ft 399 kts 167°
2026-05-07 19:52 34.92419 -112.33490 23991 ft 406 kts 167°
2026-05-07 19:52 34.89623 -112.32886 24012 ft 412 kts 167°
2026-05-07 19:52 34.86751 -112.32265 24026 ft 419 kts 167°
2026-05-07 19:52 34.83882 -112.31634 24043 ft 424 kts 167°
2026-05-07 19:53 34.80964 -112.30992 24111 ft 423 kts 167°
2026-05-07 19:53 34.78044 -112.30349 24141 ft 423 kts 167°
2026-05-07 19:53 34.75151 -112.29713 24169 ft 427 kts 167°
2026-05-07 19:53 34.72191 -112.29062 24194 ft 430 kts 167°
2026-05-07 19:54 34.69250 -112.28416 24195 ft 433 kts 167°
2026-05-07 19:54 34.66289 -112.27766 24198 ft 430 kts 167°
2026-05-07 19:54 34.63414 -112.27137 24155 ft 403 kts 167°
2026-05-07 19:54 34.60670 -112.26533 23879 ft 407 kts 167°
2026-05-07 19:55 34.57894 -112.25925 23875 ft 406 kts 167°
2026-05-07 19:55 34.55095 -112.25312 23857 ft 404 kts 167°
2026-05-07 19:55 34.52372 -112.24717 23800 ft 395 kts 166°
2026-05-07 19:55 34.49687 -112.24129 23430 ft 395 kts 166°
2026-05-07 19:56 34.46986 -112.23539 23092 ft 394 kts 166°
2026-05-07 19:56 34.44283 -112.22938 22771 ft 386 kts 165°
2026-05-07 19:56 34.41693 -112.22264 22094 ft 383 kts 164°
2026-05-07 19:56 34.39072 -112.21583 21530 ft 374 kts 164°
2026-05-07 19:57 34.36641 -112.20955 21027 ft 348 kts 164°
2026-05-07 19:57 34.34321 -112.20352 20012 ft 343 kts 164°
2026-05-07 19:57 34.32006 -112.19751 19088 ft 344 kts 164°
2026-05-07 19:57 34.29668 -112.19146 18612 ft 336 kts 164°
2026-05-07 19:58 34.27413 -112.18562 18080 ft 332 kts 164°
2026-05-07 19:58 34.25156 -112.17978 17501 ft 329 kts 165°
2026-05-07 19:58 34.22941 -112.17406 16947 ft 325 kts 165°
2026-05-07 19:58 34.20739 -112.16837 16404 ft 322 kts 165°
2026-05-07 19:59 34.18574 -112.16278 15819 ft 320 kts 165°
2026-05-07 19:59 34.16412 -112.15720 15140 ft 320 kts 165°
2026-05-07 19:59 34.14233 -112.15157 14498 ft 319 kts 166°
2026-05-07 19:59 34.12028 -112.14589 14024 ft 323 kts 166°
2026-05-07 20:00 34.09864 -112.14032 13847 ft 314 kts 166°
2026-05-07 20:00 34.07717 -112.13800 13415 ft 313 kts 182°
2026-05-07 20:00 34.05563 -112.14048 12949 ft 312 kts 183°
2026-05-07 20:00 34.03449 -112.14286 12345 ft 303 kts 183°
2026-05-07 20:01 34.01331 -112.14523 11676 ft 305 kts 183°
2026-05-07 20:01 33.99212 -112.14760 11175 ft 308 kts 184°
2026-05-07 20:01 33.97089 -112.14997 10916 ft 304 kts 184°
2026-05-07 20:01 33.94969 -112.15234 10581 ft 303 kts 184°
2026-05-07 20:02 33.92855 -112.15469 10266 ft 304 kts 184°
2026-05-07 20:02 33.90752 -112.15717 9960 ft 303 kts 187°
2026-05-07 20:02 33.88721 -112.16152 9904 ft 293 kts 189°
2026-05-07 20:02 33.86724 -112.16577 9892 ft 282 kts 189°
2026-05-07 20:03 33.84823 -112.16980 9667 ft 275 kts 189°
2026-05-07 20:03 33.82943 -112.17378 9241 ft 276 kts 189°
2026-05-07 20:03 33.81057 -112.17778 8853 ft 275 kts 189°
2026-05-07 20:03 33.79173 -112.18176 8462 ft 274 kts 189°
2026-05-07 20:04 33.77298 -112.18572 8209 ft 271 kts 189°
2026-05-07 20:04 33.75447 -112.18964 8027 ft 269 kts 190°
2026-05-07 20:04 33.73637 -112.19346 8073 ft 254 kts 190°
2026-05-07 20:04 33.71972 -112.19698 8152 ft 231 kts 190°
2026-05-07 20:05 33.70396 -112.20030 7691 ft 231 kts 190°
2026-05-07 20:05 33.68830 -112.20361 7186 ft 232 kts 190°
2026-05-07 20:05 33.67247 -112.20694 6735 ft 230 kts 190°
2026-05-07 20:05 33.65649 -112.21031 6421 ft 231 kts 190°
2026-05-07 20:06 33.64048 -112.21369 6157 ft 234 kts 189°
2026-05-07 20:06 33.62391 -112.21719 6143 ft 245 kts 189°
2026-05-07 20:06 33.60738 -112.22067 6135 ft 239 kts 189°
2026-05-07 20:06 33.59096 -112.22413 6176 ft 236 kts 188°
2026-05-07 20:07 33.57502 -112.22755 6173 ft 230 kts 189°
2026-05-07 20:07 33.55932 -112.23093 5789 ft 230 kts 189°
2026-05-07 20:07 33.54340 -112.23435 5172 ft 236 kts 189°
2026-05-07 20:07 33.52717 -112.23785 4720 ft 235 kts 189°
2026-05-07 20:08 33.51122 -112.24128 4410 ft 230 kts 189°
2026-05-07 20:08 33.49555 -112.24465 4090 ft 230 kts 189°
2026-05-07 20:08 33.47987 -112.24802 4005 ft 222 kts 189°
2026-05-07 20:08 33.46502 -112.24802 3994 ft 210 kts 161°
2026-05-07 20:09 33.45398 -112.23837 4019 ft 192 kts 126°
2026-05-07 20:09 33.44672 -112.22524 4028 ft 187 kts 122°
2026-05-07 20:09 33.43994 -112.21192 4033 ft 188 kts 119°
2026-05-07 20:10 33.43929 -112.18141 3392 ft 197 kts 83°
2026-05-07 20:10 33.44015 -112.16473 2926 ft 202 kts 86°
2026-05-07 20:10 33.44082 -112.14857 2823 ft 188 kts 86°
2026-05-07 20:10 33.44144 -112.13345 2807 ft 171 kts 86°
2026-05-07 20:11 33.44194 -112.12081 2810 ft 136 kts 86°
2026-05-07 20:11 33.44144 -112.11008 2499 ft 132 kts 94°
2026-05-07 20:11 33.44087 -112.09885 2268 ft 137 kts 90°
2026-05-07 20:11 33.44075 -112.08744 2096 ft 139 kts 89°
2026-05-07 20:12 33.44073 -112.07584 1914 ft 135 kts 89°
2026-05-07 20:12 33.44075 -112.06446 1742 ft 140 kts 89°
2026-05-07 20:12 33.44078 -112.05267 1559 ft 141 kts 88°
2026-05-07 20:12 33.44082 -112.04102 1374 ft 140 kts 89°
2026-05-07 20:13 33.44088 -112.02956 1194 ft 136 kts 89°
2026-05-07 20:13 33.44085 -112.01905 1125 ft 112 kts 90°
2026-05-07 20:13 33.44083 -112.01144 1131 ft 68 kts 90°
2026-05-07 20:13 33.44084 -112.00616 1133 ft 60 kts 90°
2026-05-07 20:14 33.44081 -112.00162 1136 ft 49 kts 89°
2026-05-07 20:14 33.44062 -111.99876 1139 ft 25 kts 121°
2026-05-07 20:14 33.43977 -111.99828 1138 ft 3 kts 185°
2026-05-07 20:14 33.43974 -111.99828 1138 ft 1 kts 184°
2026-05-07 20:15 33.43941 -111.99830 1138 ft 8 kts 181°
2026-05-07 20:15 33.43866 -111.99825 1137 ft 12 kts 176°
2026-05-07 20:15 33.43759 -111.99824 1135 ft 17 kts 179°
2026-05-07 20:15 33.43678 -111.99823 1133 ft 10 kts 180°
2026-05-07 20:16 33.43653 -111.99866 1133 ft 3 kts 269°
2026-05-07 20:16 33.43653 -111.99886 1133 ft 0 kts 270°